Dewpoint
46 45 44 44 45 45 43 42 40 41 42 43 42 40 42 44 38 37 36 35 30 25 25 23 26 31 29 31 33 34 36 36 34 31 30 30 28 28 28 29 28 27 27 27 26 24 21 31 33 32 35 34 35 35
46 44 44 44 44 45 44 43 42 42 42 44 41 39 39 42 40 39 36 36 36 31 28 28 27 25 24 23 20 26 33 34 34 31 30 30 30 30 29 27 32 28 28 27 27 25 28 33 35 36 35 34 35 34
45 44 44 44 43 44 44 43 43 42 44 44 42 39 36 40 43 38 36 37 37 32 32 31 30 31 30 29 28 22 32 40 37 37 32 32 30 31 28 29 30 32 34 32 31 32 32 33 35 36 35 35 34 34
45 45 44 44 44 44 44 43 43 42 42 43 43 41 38 39 42 39 38 38 36 33 26 24 27 26 26 29 29 28 25 29 30 35 35 33 30 33 30 30 30 32 34 32 32 33 34 34 35 35 35 35 35 35
46 46 45 45 46 46 45 44 43 43 42 42 43 37 39 42 41 39 38 38 37 32 25 26 28 28 27 28 28 28 26 25 26 31 37 33 33 33 33 33 31 34 33 33 32 33 34 34 37 38 37 37 37 36
46 46 46 46 46 46 45 44 43 43 42 44 40 39 42 38 37 37 31 34 38 37 29 23 26 26 26 28 29 29 30 29 31 34 36 37 36 32 31 30 32 34 34 34 35 37 38 39 38 37 34 33 34 34
46 45 46 46 47 45 44 44 42 43 42 42 41 41 37 38 38 32 28 29 39 37 28 22 19 28 36 30 26 25 24 31 32 33 36 37 38 35 33 30 32 35 35 33 33 34 34 36 35 33 33 34 34 33
46 46 45 45 45 45 44 43 43 42 42 41 41 38 39 39 38 34 35 39 38 34 30 22 21 27 32 29 28 30 26 28 33 36 39 37 39 36 31 33 33 31 31 31 32 32 32 32 33 33 34 33 32 31
47 47 46 44 44 43 43 43 41 42 41 40 36 39 38 35 31 32 39 41 38 33 25 25 22 23 37 34 34 34 32 29 37 34 37 37 36 32 33 34 31 30 30 30 30 30 31 32 32 32 33 32 31 31
48 47 46 44 43 42 42 42 41 41 40 34 34 32 30 33 37 39 37 32 31 31 30 24 29 26 34 33 34 33 37 33 31 36 38 36 34 32 30 30 29 29 29 29 29 30 30 31 32 32 32 33 33 32
46 45 45 44 43 43 43 42 41 40 37 31 26 29 32 37 35 33 29 27 28 26 29 29 29 29 40 35 34 38 34 34 29 33 33 32 32 31 29 29 29 28 28 29 29 30 31 32 33 33 33 34 34 34
46 45 45 45 45 43 43 41 40 38 37 36 35 35 36 33 31 27 25 29 28 27 33 31 33 34 37 40 35 35 32 33 28 37 32 29 30 28 27 27 28 28 28 29 30 30 33 33 34 35 33 33 35 35
46 45 46 46 45 43 42 40 40 38 36 36 33 31 28 28 24 23 21 26 28 30 32 32 30 35 37 38 34 34 30 30 35 32 29 29 27 27 27 27 27 28 28 28 29 31 32 33 34 35 33 32 30 30
46 45 46 45 44 43 42 41 39 36 31 27 24 17 23 23 26 26 27 27 29 30 30 31 32 33 34 33 34 31 32 32 28 25 24 27 26 27 28 28 28 27 27 27 28 28 28 29 30 31 34 32 27 28
42 46 45 44 44 43 42 40 37 33 29 23 24 12 20 25 27 27 29 30 30 31 30 30 32 33 32 32 33 32 29 27 27 23 27 27 27 27 26 26 27 27 27 27 27 27 27 27 26 26 31 33 30 24
42 44 44 44 44 43 40 36 34 32 27 25 24 19 23 24 23 24 26 27 32 30 31 31 30 30 31 31 30 28 26 24 24 27 27 28 27 27 25 25 26 27 26 26 26 26 26 26 25 25 26 28 32 30
43 42 44 44 44 40 36 31 28 24 24 22 18 23 24 24 23 24 27 28 30 30 28 29 28 28 31 29 27 29 26 27 27 28 28 28 26 26 25 24 25 25 23 23 25 26 26 26 25 24 24 23 23 29
39 39 45 43 37 35 32 29 24 23 19 19 19 20 25 26 26 27 28 28 29 29 28 27 26 26 28 26 28 30 29 27 28 28 28 27 26 26 24 23 22 20 21 22 24 26 25 25 24 24 24 23 22 22
38 41 43 39 38 34 29 27 25 21 17 18 20 22 25 25 27 29 29 27 28 29 28 27 24 24 26 28 28 28 26 27 27 27 26 25 24 25 22 22 18 19 21 21 21 22 23 22 21 19 22 25 23 22
42 43 40 38 35 29 24 22 25 20 13 15 20 21 23 23 25 24 25 26 27 26 24 23 23 26 28 29 28 29 29 27 27 26 25 22 23 21 21 20 16 16 19 19 17 19 19 16 18 18 20 25 24 23
38 40 39 37 34 31 27 21 19 19 17 17 18 18 19 19 20 21 21 25 24 23 21 23 24 26 28 29 27 28 28 27 27 27 25 21 21 20 19 19 17 14 15 13 12 13 14 14 16 19 22 22 24 25
37 38 35 35 32 28 27 22 18 19 18 15 16 16 16 16 16 17 19 19 20 21 23 23 22 23 22 22 24 26 27 26 22 15 15 17 16 16 16 15 14 8 8 9 12 12 13 15 17 21 22 21 23 23
36 35 33 31 28 25 22 22 21 18 18 14 13 13 13 13 14 17 15 16 18 21 22 23 22 19 19 20 22 23 24 24 21 17 16 14 12 12 11 13 13 8 7 8 11 12 13 16 17 20 21 21 22 22
35 32 29 26 26 21 20 18 17 17 15 15 14 13 9 9 14 15 12 12 15 19 19 19 20 20 20 20 21 21 21 21 19 15 14 13 9 9 12 11 11 11 11 12 13 13 14 14 16 20 20 18 17 18
26 24 26 21 21 19 17 15 13 13 14 11 12 12 14 13 11 10 10 11 14 12 13 17 18 20 19 19 20 21 19 19 17 15 12 13 10 9 9 10 10 11 13 11 10 11 12 13 14 16 16 16 15 15
20 20 22 21 18 18 16 15 13 13 12 11 11 11 10 11 9 10 8 7 8 9 12 16 17 18 19 20 21 20 19 17 15 13 10 12 12 7 5 6 9 11 12 12 11 12 12 13 13 13 13 13 14 15
18 18 21 22 18 16 14 10 11 10 10 10 12 14 12 12 11 9 7 9 6 11 15 16 19 20 19 21 20 18 15 16 15 13 12 12 13 14 12 10 11 12 12 12 12 13 13 13 13 12 12 12 12 13
20 18 16 18 17 14 13 10 9 9 9 11 13 14 13 13 14 13 6 10 11 14 15 15 15 18 20 18 15 16 14 13 11 11 12 12 11 11 12 12 11 15 14 14 14 14 14 14 14 13 13 13 13 13
21 19 17 17 13 14 15 14 12 10 12 14 14 13 13 13 14 8 8 11 13 13 13 13 16 14 14 12 12 12 12 14 15 13 11 11 11 9 7 8 9 9 9 10 13 15 14 14 15 14 14 14 14 15
19 19 18 14 15 14 13 13 11 8 13 16 15 14 12 10 10 13 11 10 9 9 11 11 14 14 14 16 16 15 12 12 14 15 11 9 8 8 7 9 9 9 8 9 10 10 13 14 14 13 14 13 14 15
17 17 17 14 13 13 12 8 9 11 9 9 7 11 12 10 9 10 11 12 13 13 11 10 10 10 13 13 14 12 8 8 8 9 9 8 8 8 9 10 11 10 10 10 10 11 11 11 11 10 10 11 11 13
15 16 14 13 12 8 7 11 9 9 6 7 7 4 6 6 7 9 10 8 8 8 10 12 10 10 9 11 8 7 12 9 8 8 8 10 11 11 12 12 12 12 12 12 12 12 11 10 10 10 10 10 11 12
13 12 11 13 14 14 9 10 9 8 6 6 7 6 5 7 8 12 8 7 8 8 9 8 9 9 7 7 7 7 11 9 10 15 17 17 18 17 18 20 19 16 14 14 13 12 11 10 10 11 11 12 12 14
Wind_Speed
8 10 11 13 12 12 9 8 12 14 14 13 14 15 13 7 7 1 3 5 1 3 9 6 4 4 4 4 3 3 2 3 3 8 7 6 7 9 5 7 8 13 10 6 7 6 10 5 6 5 3 2 4 3
9 9 12 13 14 10 8 10 12 14 14 12 12 13 13 15 6 1 3 2 3 4 10 8 15 13 12 11 4 4 3 4 8 6 6 4 5 5 7 6 4 9 10 9 12 9 5 4 2 2 2 6 3 2
9 11 10 8 10 7 9 11 13 13 11 9 11 12 12 13 10 8 5 4 2 5 11 12 14 14 16 21 18 9 5 5 3 2 6 4 4 7 10 8 8 6 7 4 3 7 14 11 5 3 1 2 2 5
11 12 12 10 8 9 11 11 13 14 15 14 9 11 14 16 12 9 4 6 3 3 7 6 1 6 6 14 18 24 21 3 6 10 5 5 5 6 7 3 7 6 11 9 7 9 8 2 3 0 1 3 7 7
11 13 13 11 8 13 11 10 8 11 13 15 7 12 17 14 10 5 3 6 7 5 5 11 16 13 15 15 17 20 22 17 7 7 7 8 5 5 2 3 6 9 8 10 8 6 2 5 5 7 8 12 13 10
11 14 13 13 13 9 9 5 8 10 14 11 14 18 14 14 10 1 2 1 3 5 3 6 5 5 2 13 17 15 12 9 7 7 6 4 2 6 8 7 5 8 6 6 5 4 7 13 12 1 8 13 12 10
9 8 9 14 9 6 4 4 8 10 13 14 15 19 16 8 4 3 2 2 6 4 3 7 8 4 2 4 4 8 5 5 7 6 6 4 5 8 4 6 6 9 8 4 1 1 6 4 4 15 14 14 10 5
6 4 4 4 4 4 5 6 8 10 11 15 17 16 9 3 2 3 1 6 10 1 2 5 7 5 10 5 5 9 9 6 5 5 4 5 6 3 5 7 6 5 2 3 5 2 7 13 13 13 11 7 7 7
11 7 3 0 5 4 5 7 10 11 13 16 13 2 2 2 1 2 6 6 6 2 3 3 4 5 5 4 4 9 6 9 6 6 6 6 5 6 7 7 9 5 2 2 8 9 9 7 12 11 9 7 8 9
8 8 5 6 4 2 6 7 10 10 15 9 4 1 1 1 4 7 3 2 2 3 4 5 4 6 3 2 3 5 7 7 5 3 6 3 5 3 4 4 5 2 0 2 6 6 7 11 13 14 13 12 12 13
12 8 7 5 3 4 7 4 6 10 5 5 5 2 4 6 2 2 2 3 3 4 5 6 6 7 5 4 4 5 3 2 3 3 5 4 5 5 6 5 3 2 2 3 7 8 8 11 13 14 16 14 13 12
12 9 7 5 4 2 3 3 5 3 2 4 4 4 3 2 2 2 3 3 4 3 3 6 7 5 6 4 2 4 3 1 2 5 3 3 2 4 4 3 3 4 4 4 3 5 6 7 9 10 12 13 10 10
12 10 10 6 8 4 3 2 4 6 5 1 1 2 2 1 2 2 4 2 4 7 6 7 10 5 5 3 3 2 2 2 2 4 3 2 4 4 4 3 5 6 6 6 6 7 8 9 10 9 10 10 11 6
5 6 12 9 7 6 5 2 4 5 3 3 3 4 1 3 2 2 3 5 5 5 12 13 6 4 3 2 1 1 1 2 2 3 3 3 6 6 4 5 6 7 7 7 8 8 9 9 10 10 9 9 8 6
4 8 11 9 9 8 7 4 3 4 2 1 1 2 3 4 5 6 5 5 5 7 9 8 7 4 3 2 1 2 1 3 4 3 2 7 9 7 5 3 5 6 7 8 7 8 9 10 10 10 10 10 9 6
4 4 5 8 13 11 8 5 3 2 2 0 2 3 4 5 5 4 5 5 3 9 6 5 4 4 2 1 2 4 2 3 2 3 5 11 10 8 5 3 3 3 4 5 6 7 8 10 11 10 9 10 7 4
4 2 4 11 11 11 6 2 2 3 0 2 4 5 7 9 11 6 3 4 5 6 4 5 4 2 4 2 3 3 4 3 5 6 10 11 13 10 6 4 3 2 3 5 5 8 9 9 8 10 12 12 10 7
1 2 10 16 10 4 3 4 3 2 4 5 5 2 4 6 6 7 4 3 3 3 4 2 5 4 4 3 3 3 2 1 2 9 11 10 8 8 6 5 3 2 3 4 4 4 7 9 10 10 11 11 9 7
2 5 17 13 6 4 1 1 1 4 7 3 6 6 5 7 7 7 5 3 2 2 6 4 5 5 6 6 4 3 5 5 6 7 6 5 6 8 6 5 4 3 2 2 4 4 4 5 5 9 10 10 9 8
3 17 15 9 5 2 2 2 1 3 4 2 3 4 5 7 5 4 4 4 3 2 4 6 10 6 6 4 6 4 4 9 10 9 7 8 7 7 7 5 3 0 1 2 3 3 5 6 4 9 9 8 10 10
9 6 6 4 2 2 2 2 3 4 4 3 1 4 6 4 5 3 3 4 7 6 9 14 15 15 8 6 5 4 5 13 14 10 6 12 10 10 8 5 3 1 2 4 6 7 6 7 9 9 7 6 8 11
5 6 1 2 2 2 3 2 2 2 2 4 4 3 5 5 4 2 3 6 8 10 11 10 15 16 17 16 14 12 7 10 8 5 7 12 11 11 9 9 6 3 4 6 7 8 8 7 8 7 5 6 9 12
10 4 1 2 3 4 3 1 3 1 4 3 3 3 4 4 3 4 5 7 9 9 12 10 9 6 8 5 4 5 10 14 13 11 10 9 7 7 9 10 8 6 6 7 7 7 8 9 9 8 6 8 9 10
6 3 3 5 9 4 3 3 1 2 2 3 3 4 3 3 4 3 7 7 7 6 8 12 7 8 5 5 10 13 12 12 11 8 9 11 11 10 10 9 9 11 10 9 8 9 9 8 8 7 8 9 10 11
5 6 5 9 4 5 6 5 4 3 5 4 3 5 2 1 2 5 6 6 4 10 10 8 9 11 13 8 6 8 9 13 15 14 12 13 8 4 6 8 9 10 7 9 11 8 7 5 6 7 7 8 11 13
7 9 12 9 6 7 11 6 9 9 5 4 6 2 0 1 3 7 5 5 5 6 7 7 7 7 11 11 7 5 9 12 10 12 9 14 15 13 15 14 14 11 9 11 7 7 7 6 8 9 11 12 14 14
8 10 8 2 5 5 3 1 3 3 5 7 4 5 4 4 7 7 6 6 5 5 4 5 6 9 8 5 9 6 1 11 8 6 2 6 11 12 13 13 13 7 8 7 6 7 10 12 13 14 15 13 13 14
11 7 13 9 6 4 4 5 7 8 7 6 7 8 6 9 6 4 6 4 6 3 6 5 5 5 6 4 1 5 5 6 4 0 2 5 6 8 10 10 6 5 6 7 9 10 10 12 13 14 14 16 15 14
7 6 8 7 5 7 12 12 10 9 8 12 9 9 10 8 4 5 3 4 2 2 8 10 7 4 4 3 4 5 5 10 9 9 13 14 9 6 1 4 4 4 5 7 9 11 12 13 15 16 17 16 15 14
7 11 8 8 11 13 15 15 8 6 7 6 4 5 6 7 8 5 8 9 11 16 16 13 9 11 14 13 12 11 11 12 14 13 14 16 10 3 4 3 7 10 10 10 12 13 11 10 12 13 14 12 11 13
11 14 7 10 14 18 9 3 3 2 2 5 4 11 20 11 10 10 18 18 19 14 13 16 15 12 14 14 15 13 12 8 14 14 10 7 7 8 9 11 12 11 11 11 12 12 13 12 12 14 15 16 17 15
13 17 14 11 13 3 1 6 5 7 5 6 10 6 6 6 13 12 7 9 10 14 15 13 15 15 14 12 6 5 1 2 4 5 7 8 9 10 12 13 13 12 12 12 12 12 12 13 14 14 14 15 15 15
4 3 3 2 4 5 5 6 5 5 6 7 11 9 9 8 13 6 1 4 6 5 6 6 6 3 3 6 9 6 4 3 3 5 7 9 12 12 11 10 12 12 12 12 12 11 12 12 13 14 14 15 15 15
Wind_Direction
236 265 269 272 274 282 284 291 300 316 318 320 330 325 320 296 323 131 285 194 47 280 277 230 255 243 302 263 260 338 229 214 155 194 186 187 201 209 176 176 177 186 183 195 194 221 260 185 130 195 165 239 280 265
252 256 271 286 287 263 253 273 303 317 323 294 308 311 323 319 291 99 249 204 162 215 260 248 249 242 239 244 300 277 294 279 220 176 208 163 173 166 173 207 178 201 185 185 198 212 243 212 273 246 200 288 253 270
249 264 261 280 286 266 257 282 301 322 336 311 314 312 302 313 288 272 240 182 191 261 265 247 252 258 230 229 214 216 242 290 66 339 188 187 200 158 175 221 193 224 192 225 197 234 238 260 273 304 279 209 284 274
258 262 261 270 247 247 258 279 304 319 320 327 340 323 302 301 305 296 243 177 175 274 277 280 214 245 224 209 204 217 240 225 5 324 228 188 198 195 194 183 198 195 162 197 242 276 283 234 162 161 299 301 292 274
255 258 259 265 261 268 265 283 317 332 327 325 342 296 302 307 302 304 243 221 207 200 281 293 298 273 234 205 207 212 226 250 267 303 225 204 163 151 125 146 223 191 186 188 222 185 208 253 294 333 314 313 303 275
256 261 250 261 274 265 267 279 314 312 314 321 316 309 317 315 305 151 305 293 213 182 315 288 290 277 300 215 207 201 198 200 177 240 251 257 207 165 167 204 230 199 198 179 179 173 236 266 285 173 335 321 309 282
258 274 272 283 279 249 240 301 308 315 326 327 317 312 319 309 146 185 216 162 154 133 251 295 298 275 14 146 143 186 203 207 161 238 271 213 185 166 158 215 207 183 171 148 102 310 279 224 266 313 309 302 289 262
233 231 307 320 240 209 274 281 307 303 312 309 316 318 302 99 134 284 308 164 141 244 242 277 279 297 178 183 143 155 156 180 249 232 236 185 128 118 243 227 163 168 219 240 150 15 280 292 303 315 311 291 272 252
239 215 230 180 146 270 276 277 306 325 313 322 320 304 78 49 91 248 304 228 137 196 266 252 274 297 197 202 146 175 144 195 232 221 217 150 141 206 234 197 191 193 188 203 303 301 294 302 314 315 323 301 270 263
221 185 192 192 199 322 300 301 327 331 325 334 4 341 227 355 292 304 183 183 196 206 230 258 267 263 263 245 138 152 174 182 192 205 119 174 220 219 157 119 122 126 350 343 307 318 324 326 319 313 303 294 278 268
171 176 183 205 212 302 287 329 349 339 358 8 352 323 295 305 324 242 240 215 214 248 213 242 247 282 245 187 164 200 160 147 139 163 175 210 243 188 138 127 85 40 351 281 246 264 273 274 291 304 306 295 280 261
178 174 184 203 227 251 303 5 356 21 310 298 302 290 285 299 257 288 265 249 224 276 320 305 304 259 292 328 44 10 103 150 152 145 185 232 228 119 122 86 43 19 347 325 325 321 317 318 322 312 312 309 295 264
186 191 197 206 198 206 139 59 5 334 341 355 280 298 339 314 332 327 325 312 325 351 355 322 323 302 309 348 52 26 84 138 136 181 234 232 139 101 77 73 76 41 34 26 6 358 345 350 350 342 336 345 346 315
231 214 177 181 184 148 131 69 14 15 31 7 8 342 22 325 298 296 307 312 303 299 320 316 299 286 302 322 83 78 72 135 207 241 253 190 166 135 97 73 81 45 33 28 19 358 357 356 347 347 358 357 345 337
227 167 171 168 159 150 142 116 49 54 29 338 48 299 249 284 276 276 288 285 270 294 313 306 290 250 275 277 287 116 176 240 226 241 240 173 158 144 127 94 71 47 29 24 6 4 357 352 352 352 1 0 359 352
185 163 211 176 154 148 138 113 74 86 51 193 213 265 254 292 293 318 301 302 310 315 291 248 280 288 264 243 204 216 193 233 267 231 177 155 158 159 154 118 94 48 18 359 5 6 5 4 0 354 2 9 355 341
150 242 213 163 146 123 93 86 79 67 78 275 249 238 247 266 262 266 271 275 319 327 315 311 260 267 307 262 252 210 213 211 200 190 172 170 171 171 159 132 106 58 17 6 8 17 12 3 13 22 13 355 348 337
115 313 165 140 118 83 38 27 93 104 245 239 258 264 217 236 262 267 261 291 316 315 311 293 311 267 231 227 245 269 256 299 102 163 173 175 172 167 162 151 136 88 48 32 29 17 15 22 24 8 350 346 345 350
255 174 150 139 120 98 207 247 329 242 234 245 263 261 257 262 258 262 259 270 270 277 292 279 255 235 239 240 253 265 221 196 172 170 163 167 174 171 162 148 128 116 93 44 24 12 355 356 355 350 342 347 347 342
135 148 140 117 91 98 291 260 308 240 244 232 256 265 264 259 293 274 258 229 209 224 235 228 227 221 220 246 219 237 235 190 155 165 195 201 189 172 174 175 172 280 283 314 331 335 349 350 349 345 343 342 348 337
74 99 71 74 62 98 239 220 252 233 293 261 283 319 281 316 271 263 260 191 204 223 233 229 232 237 243 251 242 239 218 188 199 196 201 193 188 183 183 192 190 252 290 316 322 331 343 337 329 332 335 330 329 327
111 117 91 82 200 223 253 158 274 327 267 280 298 336 271 282 274 265 310 223 234 235 217 238 241 237 247 248 242 225 223 196 189 163 133 132 162 184 201 199 189 219 262 280 285 297 303 307 315 316 319 325 328 329
105 112 132 173 215 224 230 117 221 239 259 279 316 267 240 249 241 328 261 235 250 245 241 255 256 238 251 265 228 219 201 189 193 196 185 181 164 169 157 174 197 214 263 284 252 269 287 304 309 306 311 332 325 327
95 151 216 232 211 233 140 203 216 268 306 253 234 263 246 251 344 255 257 270 256 289 276 263 243 251 255 249 241 231 210 194 193 195 190 181 193 207 206 209 212 222 237 274 284 277 275 283 293 298 300 307 317 319
155 213 214 230 220 180 199 197 186 185 250 212 232 256 223 38 274 264 257 279 276 297 316 308 251 239 247 264 268 245 194 188 196 207 209 204 195 173 212 226 233 245 236 255 270 264 272 277 280 277 285 291 302 309
205 212 200 210 198 193 199 188 194 211 216 221 235 253 111 174 257 252 246 249 273 290 305 313 283 260 251 237 259 257 222 196 189 219 231 200 210 223 242 249 259 270 224 219 235 258 276 288 295 292 289 290 297 302
223 235 211 164 146 133 182 171 135 175 208 219 199 183 185 224 242 248 261 228 248 264 267 266 242 233 248 288 234 246 223 176 183 203 133 202 218 218 221 232 252 251 175 188 213 247 274 284 286 285 285 283 280 281
220 198 208 171 165 181 207 191 192 216 229 196 151 197 221 211 240 238 236 237 221 284 288 279 229 222 243 257 265 176 171 162 152 115 285 263 243 233 229 239 242 217 242 233 239 243 250 261 270 276 279 282 285 279
210 162 135 179 176 203 218 210 222 218 189 175 201 228 240 226 245 247 264 235 213 271 290 284 261 227 225 222 209 208 198 181 187 243 263 269 276 272 255 244 257 256 269 283 286 276 263 258 257 256 260 263 268 275
189 167 198 200 201 225 235 194 225 224 206 213 247 283 263 255 256 239 237 235 244 255 256 253 243 213 235 223 235 232 226 219 220 230 257 269 273 169 160 228 270 276 273 272 273 279 286 285 289 286 286 284 278 273
155 172 205 212 236 243 242 229 277 238 245 241 234 244 260 287 290 256 241 243 244 246 248 253 245 236 234 230 223 231 248 232 228 234 240 245 258 261 267 273 271 269 264 256 256 262 275 279 273 274 274 272 275 276
177 188 198 221 246 275 236 206 212 218 232 235 248 227 269 265 269 277 215 198 224 245 249 248 251 255 229 224 211 207 108 154 185 204 211 228 252 269 273 272 268 262 256 255 256 258 260 256 263 266 270 272 272 272
154 144 163 228 254 245 194 188 245 250 226 241 246 226 227 236 253 268 227 210 217 235 250 253 244 239 229 212 203 187 183 189 223 241 257 266 276 277 267 262 273 261 248 251 252 249 251 249 256 266 270 271 273 275